Regional Weather Roundup
Issued by NWS

Home | Current Version | Previous Version | Text Only | Print | Product List | Glossary Off
Versions: 1 2 3 4 5 6 7 8 9 10 11 12 13 14 15 16 17 18 19 20 21 22 23 24 25 26 27 28 29 30 31 32 33 34 35 36 37 38 39 40 41 42 43 44 45 46 47 48 49 50

483
ASUS45 KPSR 212210
RWRAZ

ARIZONA HOURLY REGIONAL WEATHER ROUNDUP
NATIONAL WEATHER SERVICE PHOENIX AZ
300 PM MST THU MAY 21 2015

NOTE: FAIR INDICATES FEW OR NO CLOUDS BELOW 12,000 FEET WITH NO
SIGNIFICANT WEATHER AND/OR OBSTRUCTIONS TO VISIBILITY.

AZZ001>003-036-212300-
NORTHWEST ARIZONA

CITY           SKY/WX    TMP DP  RH WIND       PRES   REMARKS
BULLHEAD CITY  MOSUNNY   86  27  11 SW13G24   29.73F
KINGMAN        CLOUDY    76  24  14 SW18      29.84F
$$

AZZ004>008-015-016-018-212300-
NORTH CENTRAL ARIZONA

CITY           SKY/WX    TMP DP  RH WIND       PRES   REMARKS
GRAND CANYON   CLOUDY    61  21  21 SW15G23   29.98F
WILLIAMS       PTSUNNY   63  25  23 S17G30    30.05F
PRESCOTT       MOSUNNY   69  24  18 SW16G24   29.93S
FLAGSTAFF      MOSUNNY   60  25  26 SW18      30.01F
PAYSON         MOSUNNY   72  27  18 S13G21    29.96F
$$

AZZ009>014-017-212300-
NORTHEAST ARIZONA

CITY           SKY/WX    TMP DP  RH WIND       PRES   REMARKS
WINSLOW        PTSUNNY   76  20  12 S17G26    29.89F
SAINT JOHNS    MOSUNNY   77  18  11 S22G36    29.91F
WINDOW ROCK    PTSUNNY   70  19  14 S16G33    29.98F
SHOW LOW       PTSUNNY   64  23  20 S21G32    29.99F
$$

AZZ023-212300-
GREATER PHOENIX AREA

CITY           SKY/WX    TMP DP  RH WIND       PRES   REMARKS
PHOENIX        PTSUNNY   90  29  11 S14G23    29.75F
BUCKEYE        MOSUNNY   84  34  16 S8G20     29.78F
GLENDALE       PTSUNNY   88  30  12 S9G21     29.77F
LUKE AFB       MOSUNNY   86  33  14 S16       29.75F
DEER VALLEY    MOSUNNY   86  25  11 MISG      29.77F
SCOTTSDALE     MOSUNNY   85  26  11 S13G23    29.79F
MESA-FALCON    PTSUNNY  N/A N/A N/A SE14      29.78F
MESA-GATEWAY   PTSUNNY   86  32  14 SW9       29.78F
CHANDLER       PTSUNNY   88  32  13 MISG      29.76F
$$

AZZ027-028-212300-
SOUTHWEST MARICOPA COUNTY AND PINAL COUNTY

CITY           SKY/WX    TMP DP  RH WIND       PRES   REMARKS
CASA GRANDE    MOSUNNY   88  30  12 SW20G28   29.76F
GILA BEND      PTSUNNY   87  24  10 SW18G25   29.76F
$$

AZZ503-504-507>509-212300-
SOUTHEAST ARIZONA

CITY           SKY/WX    TMP DP  RH WIND       PRES   REMARKS
TUCSON         PTSUNNY   87  24  10 SW18G29   29.85F
DAVIS-MONTHAN  MOSUNNY   85  26  11 S16G29    29.83S
RYAN FIELD       N/A     88  34  14 SW25G33   29.83F
NOGALES        SUNNY     81  27  14 SW22G37   29.93S
SIERRA VISTA   SUNNY     78  19  11 SW28G35   29.95S
DOUGLAS        PTSUNNY   82  16   8 S29G39    29.93F
SAFFORD        MOSUNNY   86  25  11 SW12G20   29.79F
$$

AZZ020-021-025-026-031-212300-
SOUTHWEST ARIZONA

CITY           SKY/WX    TMP DP  RH WIND       PRES   REMARKS
YUMA           MOSUNNY   85  36  17 W13       29.78F
$$

CAZ031-033-041-043-047-048-061-212300-
SOUTHERN CALIFORNIA

CITY           SKY/WX    TMP DP  RH WIND       PRES   REMARKS
DOWNTOWN L.A.  MOSUNNY   67  50  54 MISG      29.95S
L.A. AIRPORT   MOSUNNY   64  52  64 W16       29.97S
SAN DIEGO      PTSUNNY   66  49  54 W13G21    30.01S
BURBANK        CLOUDY    64  46  52 S9        29.94S
ONTARIO        CLOUDY    67  45  45 SW14      29.93F
RIVERSIDE      CLOUDY    68  46  45 SW8       29.93F
PALM SPRINGS   MOSUNNY   80  40  23 NW24G33   29.78F
EL CENTRO NAS  MOSUNNY   79  39  23 W33G41    29.82F
IMPERIAL       SUNNY     78  40  25 W26G38    29.78F
BLYTHE         MOSUNNY   85  36  17 S14G22    29.75F
NEEDLES        SUNNY     89  24   9 SW10      29.73F
$$

NVZ020-UTZ003-212300-
SOUTHERN NEVADA-UTAH

CITY           SKY/WX    TMP DP  RH WIND       PRES   REMARKS
LAS VEGAS      PTSUNNY   80  27  14 S8        29.73F
SALT LAKE CITY CLOUDY    64  43  46 W13       29.90R
$$

NMZ009-TXZ055-212300-
NEW MEXICO-WEST TEXAS

CITY           SKY/WX    TMP DP  RH WIND       PRES   REMARKS
ALBUQUERQUE    CLOUDY    59  43  55 E32G43    30.03F
EL PASO        MOSUNNY   78  52  40 E14       29.95F
$$


........................KEY........................
SKY/WX - SKY CONDITION/WEATHER
TMP    - TEMPERATURE IN FAHRENHEIT
DP     - DEW POINT IN FAHRENHEIT
RH     - RELATIVE HUMIDITY IN PERCENT
WIND   - DIRECTION AND SPEED IN MILES PER HOUR (MPH)
VRB    - VARIABLE WIND DIRECTION
PRES   - MEAN SEA LEVEL PRESSURE IN INCHES OF MERCURY
         F - FALLING PRESSURE   R - RISING PRESSURE
         S - STEADY PRESSURE
VSB    - VISIBILITY IN MILES
HX     - HEAT INDEX IN FAHRENHEIT
WCI    - WIND CHILL INDEX IN FAHRENHEIT
TC     - TEMPERATURE IN CELSIUS WHICH IS ALSO KNOWN AS
         TEMPERATURE IN CENTIGRADE
AFB    - AIR FORCE BASE
         LUKE AFB IS LUKE AIR FORCE BASE
         DAVIS-MONTHAN IS DAVIS-MONTHAN AIR FORCE BASE
NAS    - NAVAL AIR STATION
         EL CENTRO NAS IS EL CENTRO NAVAL AIR STATION
N/A    - NOT AVAILABLE




USA.gov is the U.S. government's official web portal to all federal, state and local government web resources and services.